| time (UTC) | temp F | wind direction | speed MPH | gust MPH | rain 1hr in | rain 24hr in | rain mn in | humidity % | barometer mb |
| 20260831165004 | 75 | 245 | 2.0 | 5.0 | 0.00 | 0.00 | 0.00 | 69 | 1014.3 |
| 20260831164025 | 74 | 254 | 3.0 | 5.0 | 0.00 | 0.00 | 0.00 | 72 | 1014.2 |
| 20260831163004 | 75 | 258 | 2.0 | 5.0 | 0.00 | 0.00 | 0.00 | 71 | 1014.1 |
| 20260831162003 | 74 | 281 | 2.0 | 7.0 | 0.00 | 0.00 | 0.00 | 73 | 1014.2 |
| 20260831161024 | 72 | 317 | 1.0 | 6.0 | 0.00 | 0.00 | 0.00 | 76 | 1014.1 |
| 20260831160004 | 70 | 64 | 1.0 | 3.0 | 0.00 | 0.00 | 0.00 | 82 | 1014.2 |
| 20260831155004 | 67 | 64 | 2.0 | 4.0 | 0.00 | 0.00 | 0.00 | 90 | 1014.2 |
| 20260831153025 | 63 | 0 | 0.0 | 0.0 | 0.00 | 0.00 | 0.00 | 91 | 1014.2 |
| 20260831152003 | 63 | 0 | 0.0 | 0.0 | 0.00 | 0.00 | 0.00 | 91 | 1014.1 |
| 20260831151004 | 62 | 0 | 0.0 | 0.0 | 0.00 | 0.00 | 0.00 | 91 | 1014.1 |
| 20260831150004 | 62 | 0 | 0.0 | 0.0 | 0.00 | 0.00 | 0.00 | 91 | 1013.9 |
| 20260831145004 | 61 | 0 | 0.0 | 0.0 | 0.00 | 0.00 | 0.00 | 91 | 1013.9 |
| 20260831144003 | 61 | 0 | 0.0 | 0.0 | 0.00 | 0.00 | 0.00 | 90 | 1013.8 |
| 20260831143025 | 60 | 0 | 0.0 | 0.0 | 0.00 | 0.00 | 0.00 | 90 | 1013.6 |
| 20260831142003 | 60 | 0 | 0.0 | 0.0 | 0.00 | 0.00 | 0.00 | 90 | 1013.5 |
| 20260831140004 | 60 | 63 | 1.0 | 3.0 | 0.00 | 0.00 | 0.00 | 90 | 1013.2 |
| 20260831135003 | 60 | 61 | 1.0 | 3.0 | 0.00 | 0.00 | 0.00 | 89 | 1012.9 |
| 20260831134003 | 60 | 61 | 1.0 | 3.0 | 0.00 | 0.00 | 0.00 | 89 | 1012.8 |
| 20260831133003 | 60 | 60 | 2.0 | 3.0 | 0.00 | 0.00 | 0.00 | 89 | 1012.8 |
| 20260831132003 | 60 | 59 | 2.0 | 4.0 | 0.00 | 0.00 | 0.00 | 89 | 1012.9 |
| 20260831131004 | 60 | 58 | 1.0 | 4.0 | 0.00 | 0.00 | 0.00 | 88 | 1013.0 |
| 20260831130025 | 60 | 58 | 2.0 | 4.0 | 0.00 | 0.00 | 0.00 | 88 | 1012.9 |
| 20260831125003 | 60 | 34 | 1.0 | 4.0 | 0.00 | 0.00 | 0.00 | 88 | 1012.8 |
| 20260831124003 | 60 | 30 | 1.0 | 4.0 | 0.00 | 0.00 | 0.00 | 88 | 1012.8 |
| 20260831123003 | 60 | 29 | 1.0 | 3.0 | 0.00 | 0.00 | 0.00 | 88 | 1012.7 |
| 20260831122003 | 61 | 27 | 1.0 | 3.0 | 0.00 | 0.00 | 0.00 | 88 | 1012.7 |
| 20260831121024 | 60 | 25 | 1.0 | 3.0 | 0.00 | 0.00 | 0.00 | 87 | 1012.7 |
| 20260831120003 | 61 | 329 | 1.0 | 4.0 | 0.00 | 0.00 | 0.00 | 87 | 1012.7 |
| 20260831115003 | 61 | 254 | 1.0 | 3.0 | 0.00 | 0.00 | 0.00 | 87 | 1012.8 |
| 20260831114003 | 61 | 253 | 0.0 | 3.0 | 0.00 | 0.00 | 0.00 | 86 | 1012.7 |
| 20260831113003 | 61 | 0 | 0.0 | 0.0 | 0.00 | 0.00 | 0.00 | 85 | 1012.7 |
| 20260831112003 | 61 | 0 | 0.0 | 0.0 | 0.00 | 0.00 | 0.00 | 85 | 1012.8 |
| 20260831111003 | 62 | 0 | 0.0 | 0.0 | 0.00 | 0.00 | 0.00 | 85 | 1012.8 |
| 20260831110003 | 62 | 0 | 0.0 | 0.0 | 0.00 | 0.00 | 0.00 | 85 | 1012.8 |
| 20260831105024 | 62 | 0 | 0.0 | 0.0 | 0.00 | 0.00 | 0.00 | 85 | 1012.9 |
| 20260831104003 | 62 | 0 | 0.0 | 0.0 | 0.00 | 0.00 | 0.00 | 85 | 1012.9 |
| 20260831103003 | 62 | 0 | 2.0 | 2.0 | 0.00 | 0.00 | 0.00 | 85 | 1012.8 |
| 20260831102003 | 63 | 0 | 0.0 | 0.0 | 0.00 | 0.00 | 0.00 | 84 | 1012.9 |
| 20260831101003 | 63 | 0 | 0.0 | 0.0 | 0.00 | 0.00 | 0.00 | 84 | 1012.8 |
| 20260831100003 | 63 | 0 | 0.0 | 0.0 | 0.00 | 0.00 | 0.00 | 84 | 1012.7 |
| 20260831095003 | 64 | 0 | 0.0 | 0.0 | 0.00 | 0.00 | 0.00 | 84 | 1012.8 |
| 20260831094024 | 64 | 0 | 0.0 | 0.0 | 0.00 | 0.00 | 0.00 | 84 | 1012.8 |
| 20260831092003 | 64 | 0 | 0.0 | 0.0 | 0.00 | 0.00 | 0.00 | 84 | 1012.8 |
| 20260831091024 | 64 | 0 | 0.0 | 0.0 | 0.00 | 0.00 | 0.00 | 84 | 1012.6 |
| 20260831090003 | 65 | 0 | 0.0 | 0.0 | 0.00 | 0.00 | 0.00 | 83 | 1012.7 |
| 20260831082024 | 65 | 0 | 0.0 | 0.0 | 0.00 | 0.00 | 0.00 | 82 | 1012.7 |
| 20260831080024 | 66 | 0 | 0.0 | 0.0 | 0.00 | 0.00 | 0.00 | 82 | 1012.6 |
| 20260831075003 | 66 | 0 | 0.0 | 0.0 | 0.00 | 0.00 | 0.00 | 83 | 1012.6 |
| 20260831074004 | 66 | 0 | 0.0 | 0.0 | 0.00 | 0.00 | 0.00 | 83 | 1012.5 |
| 20260831073004 | 66 | 251 | 0.0 | 2.0 | 0.00 | 0.00 | 0.00 | 82 | 1012.6 |
| 20260831072004 | 66 | 251 | 1.0 | 2.0 | 0.00 | 0.00 | 0.00 | 82 | 1012.6 |
| 20260831071004 | 66 | 251 | 1.0 | 3.0 | 0.00 | 0.00 | 0.00 | 82 | 1012.6 |
| 20260831070005 | 66 | 251 | 1.0 | 3.0 | 0.00 | 0.00 | 0.00 | 82 | 1012.6 |
| 20260831065004 | 67 | 0 | 0.0 | 2.0 | 0.00 | 0.00 | 0.00 | 81 | 1012.6 |
| 20260831064004 | 67 | 0 | 0.0 | 2.0 | 0.00 | 0.00 | 0.00 | 81 | 1012.6 |
| 20260831063025 | 67 | 0 | 0.0 | 2.0 | 0.00 | 0.00 | 0.00 | 80 | 1012.5 |
| 20260831062004 | 67 | 0 | 0.0 | 1.0 | 0.00 | 0.00 | 0.00 | 81 | 1012.5 |
| 20260831061004 | 67 | 0 | 0.0 | 1.0 | 0.00 | 0.00 | 0.00 | 80 | 1012.3 |
| 20260831060025 | 67 | 0 | 0.0 | 3.0 | 0.00 | 0.00 | 0.00 | 80 | 1012.3 |
| 20260831055025 | 68 | 0 | 0.0 | 1.0 | 0.00 | 0.00 | 0.00 | 80 | 1012.4 |
| 20260831054004 | 68 | 0 | 0.0 | 0.0 | 0.00 | 0.00 | 0.00 | 79 | 1012.3 |
| 20260831053004 | 68 | 0 | 0.0 | 0.0 | 0.00 | 0.00 | 0.00 | 79 | 1012.4 |
| 20260831052004 | 68 | 0 | 0.0 | 0.0 | 0.00 | 0.00 | 0.00 | 79 | 1012.4 |
| 20260831051004 | 68 | 0 | 0.0 | 0.0 | 0.00 | 0.00 | 0.00 | 79 | 1012.4 |
| 20260831050004 | 68 | 0 | 0.0 | 0.0 | 0.00 | 0.00 | 0.00 | 79 | 1012.5 |
| 20260831045004 | 68 | 0 | 0.0 | 2.0 | 0.00 | 0.00 | 0.00 | 79 | 1012.4 |
| 20260831044004 | 69 | 249 | 0.0 | 2.0 | 0.00 | 0.00 | 0.00 | 78 | 1012.5 |
| 20260831043025 | 69 | 249 | 1.0 | 2.0 | 0.00 | 0.00 | 0.00 | 78 | 1012.4 |
| 20260831042004 | 69 | 249 | 1.0 | 4.0 | 0.00 | 0.00 | 0.00 | 77 | 1012.3 |
| 20260831040004 | 70 | 238 | 2.0 | 4.0 | 0.00 | 0.00 | 0.00 | 76 | 1012.1 |
| 20260831035004 | 70 | 242 | 1.0 | 4.0 | 0.00 | 0.00 | 0.00 | 76 | 1012.1 |
| 20260831034004 | 70 | 243 | 1.0 | 3.0 | 0.00 | 0.00 | 0.00 | 74 | 1011.9 |
| 20260831033004 | 71 | 245 | 2.0 | 3.0 | 0.00 | 0.00 | 0.00 | 74 | 1011.7 |
| 20260831032004 | 71 | 244 | 1.0 | 4.0 | 0.00 | 0.00 | 0.00 | 73 | 1011.5 |
| 20260831031004 | 72 | 243 | 2.0 | 5.0 | 0.00 | 0.00 | 0.00 | 72 | 1011.4 |
| 20260831030025 | 72 | 246 | 2.0 | 5.0 | 0.00 | 0.00 | 0.00 | 71 | 1011.3 |
| 20260831025004 | 72 | 262 | 2.0 | 5.0 | 0.00 | 0.00 | 0.00 | 70 | 1011.1 |
| 20260831024004 | 73 | 245 | 2.0 | 8.0 | 0.00 | 0.00 | 0.00 | 69 | 1011.1 |
| 20260831023025 | 74 | 244 | 2.0 | 6.0 | 0.00 | 0.00 | 0.00 | 67 | 1011.1 |
| 20260831022004 | 74 | 249 | 3.0 | 7.0 | 0.00 | 0.00 | 0.00 | 66 | 1011.2 |
| 20260831020025 | 76 | 269 | 2.0 | 8.0 | 0.00 | 0.00 | 0.00 | 64 | 1011.1 |
| 20260831015004 | 76 | 256 | 3.0 | 7.0 | 0.00 | 0.00 | 0.00 | 62 | 1011.1 |
| 20260831014004 | 77 | 254 | 3.0 | 7.0 | 0.00 | 0.00 | 0.00 | 61 | 1011.2 |
| 20260831013025 | 78 | 272 | 4.0 | 8.0 | 0.00 | 0.00 | 0.00 | 60 | 1011.2 |
| 20260831011025 | 79 | 242 | 4.0 | 11.0 | 0.00 | 0.00 | 0.00 | 57 | 1011.2 |
| 20260831010004 | 81 | 251 | 3.0 | 9.0 | 0.00 | 0.00 | 0.00 | 55 | 1011.3 |
| 20260831005025 | 81 | 261 | 4.0 | 9.0 | 0.00 | 0.00 | 0.00 | 56 | 1011.2 |
| 20260831004004 | 81 | 274 | 5.0 | 11.0 | 0.00 | 0.00 | 0.00 | 54 | 1011.2 |
| 20260831003004 | 82 | 252 | 6.0 | 12.0 | 0.00 | 0.00 | 0.00 | 54 | 1011.3 |
| 20260831001004 | 83 | 237 | 4.0 | 9.0 | 0.00 | 0.00 | 0.00 | 54 | 1011.1 |
| 20260831000004 | 82 | 259 | 6.0 | 10.0 | 0.00 | 0.00 | 0.00 | 57 | 1011.2 |
| 20260830235004 | 82 | 253 | 5.0 | 12.0 | 0.00 | 0.00 | 0.00 | 56 | 1011.1 |
| 20260830233004 | 84 | 266 | 5.0 | 13.0 | 0.00 | 0.00 | 0.00 | 55 | 1011.1 |
| 20260830232004 | 83 | 245 | 4.0 | 12.0 | 0.00 | 0.00 | 0.00 | 55 | 1011.2 |
| 20260830225004 | 86 | 270 | 5.0 | 11.0 | 0.00 | 0.00 | 0.00 | 53 | 1011.1 |
| 20260830224004 | 87 | 260 | 4.0 | 10.0 | 0.00 | 0.00 | 0.00 | 52 | 1011.1 |
| 20260830223004 | 86 | 261 | 4.0 | 10.0 | 0.00 | 0.00 | 0.00 | 53 | 1011.3 |
| 20260830222025 | 86 | 257 | 4.0 | 10.0 | 0.00 | 0.00 | 0.00 | 54 | 1011.6 |
| 20260830221025 | 86 | 254 | 4.0 | 10.0 | 0.00 | 0.00 | 0.00 | 53 | 1011.8 |
| 20260830220004 | 86 | 256 | 4.0 | 10.0 | 0.00 | 0.00 | 0.00 | 54 | 1011.8 |
| 20260830215025 | 86 | 256 | 4.0 | 9.0 | 0.00 | 0.00 | 0.00 | 53 | 1011.9 |
| 20260830214004 | 85 | 265 | 4.0 | 9.0 | 0.00 | 0.00 | 0.00 | 55 | 1012.1 |
| 20260830213004 | 84 | 271 | 5.0 | 10.0 | 0.00 | 0.00 | 0.00 | 56 | 1012.2 |
| 20260830212004 | 83 | 263 | 5.0 | 11.0 | 0.00 | 0.00 | 0.00 | 57 | 1012.4 |
| 20260830211004 | 82 | 252 | 5.0 | 11.0 | 0.00 | 0.00 | 0.00 | 59 | 1012.5 |
| 20260830210004 | 83 | 265 | 5.0 | 11.0 | 0.00 | 0.00 | 0.00 | 58 | 1012.7 |
| 20260830205004 | 83 | 286 | 5.0 | 12.0 | 0.00 | 0.00 | 0.00 | 58 | 1012.7 |
| 20260830204004 | 84 | 260 | 4.0 | 11.0 | 0.00 | 0.00 | 0.00 | 57 | 1012.7 |
| 20260830203025 | 83 | 271 | 5.0 | 10.0 | 0.00 | 0.00 | 0.00 | 60 | 1012.8 |
| 20260830202004 | 82 | 263 | 5.0 | 12.0 | 0.00 | 0.00 | 0.00 | 60 | 1012.8 |
| 20260830200025 | 84 | 261 | 5.0 | 12.0 | 0.00 | 0.00 | 0.00 | 59 | 1012.8 |
| 20260830195004 | 83 | 250 | 6.0 | 11.0 | 0.00 | 0.00 | 0.00 | 60 | 1012.8 |
| 20260830194004 | 84 | 265 | 5.0 | 11.0 | 0.00 | 0.00 | 0.00 | 58 | 1012.7 |
| 20260830193004 | 84 | 262 | 5.0 | 10.0 | 0.00 | 0.00 | 0.00 | 58 | 1012.8 |
| 20260830192004 | 85 | 247 | 4.0 | 9.0 | 0.00 | 0.00 | 0.00 | 57 | 1012.9 |
| 20260830191025 | 84 | 261 | 5.0 | 10.0 | 0.00 | 0.00 | 0.00 | 58 | 1012.9 |
| 20260830190004 | 84 | 280 | 4.0 | 13.0 | 0.00 | 0.00 | 0.00 | 57 | 1013.0 |
| 20260830185025 | 84 | 273 | 5.0 | 12.0 | 0.00 | 0.00 | 0.00 | 59 | 1013.1 |
| 20260830184025 | 84 | 252 | 4.0 | 11.0 | 0.00 | 0.00 | 0.00 | 58 | 1013.2 |
| 20260830183003 | 84 | 264 | 4.0 | 10.0 | 0.00 | 0.00 | 0.00 | 57 | 1013.1 |
| 20260830182004 | 83 | 262 | 4.0 | 11.0 | 0.00 | 0.00 | 0.00 | 60 | 1013.2 |
| 20260830181003 | 83 | 266 | 3.0 | 10.0 | 0.00 | 0.00 | 0.00 | 60 | 1013.0 |
| 20260830180004 | 81 | 278 | 3.0 | 8.0 | 0.00 | 0.00 | 0.00 | 63 | 1013.0 |
| 20260830175003 | 80 | 258 | 3.0 | 7.0 | 0.00 | 0.00 | 0.00 | 64 | 1012.9 |
| 20260830174025 | 80 | 278 | 3.0 | 8.0 | 0.00 | 0.00 | 0.00 | 65 | 1013.0 |
| 20260830173003 | 79 | 268 | 3.0 | 7.0 | 0.00 | 0.00 | 0.00 | 67 | 1012.9 |
| 20260830172025 | 79 | 270 | 3.0 | 6.0 | 0.00 | 0.00 | 0.00 | 69 | 1013.0 |
| 20260830171025 | 77 | 239 | 2.0 | 5.0 | 0.00 | 0.00 | 0.00 | 70 | 1013.0 |
| 20260830170004 | 77 | 242 | 3.0 | 6.0 | 0.00 | 0.00 | 0.00 | 71 | 1012.8 |